Regional Weather Roundup
Issued by NWS Charleston, SC

Current Version | Previous Version | Graphics & Text | Print | Product List | Glossary On
Versions: 1 2 3 4 5 6 7 8 9 10 11 12 13 14 15 16 17 18 19 20 21 22 23 24 25 26 27 28 29 30 31 32 33 34 35 36 37 38 39 40 41 42 43 44 45 46 47 48 49 50
000
ASUS42 KCHS 201239
RWRCHS

REGIONAL WEATHER ROUNDUP
NATIONAL WEATHER SERVICE CHARLESTON SC
800 AM EDT WED SEP 20 2017

NOTE: "FAIR" INDICATES FEW OR NO CLOUDS BELOW 12,000 FEET WITH NO
SIGNIFICANT WEATHER AND/OR OBSTRUCTIONS TO VISIBILITY.

NOT ALL STATIONS ARE QUALITY CONTROLLED. USE DATA WITH CAUTION...
ESPECIALLY DEWPOINT OBSERVATIONS.

SCZ027-030-031-034>040-042>050-201300-
...SOUTHEAST SOUTH CAROLINA...

CITY           SKY/WX    TMP DP  RH WIND       PRES   REMARKS
N CHARLESTON   PTSUNNY   74  74 100 CALM      30.03R
6HR MIN TEMP:  72; 6HR MAX TEMP:  75;

WATERFRONT PRK   N/A     76  74  93 CALM      29.86R
JOHNS ISLAND   FAIR      79  75  89 CALM      30.04R
PINOPOLIS        N/A     73  72  94 CALM      29.95R
MONCKS CORNER  FAIR      70  70 100 CALM      30.04R FOG
SUMMERVILLE    FAIR      70  70 100 CALM      30.05R FOG
BEAUFORT MCAS  MOCLDY    75  74  96 SW5       30.03R
6HR MIN TEMP:  73; 6HR MAX TEMP:  75;

BEAUFORT ARPT  PTSUNNY   77  72  83 CALM      30.04R
HILTON HEAD IS MOCLDY    77  73  88 CALM      30.04R
WALTERBORO     MOSUNNY   70  70 100 CALM      30.05R
ALLENDALE      NOT AVBL

...SOUTHERN MIDLANDS AND PEE DEE...

CITY           SKY/WX    TMP DP  RH WIND       PRES   REMARKS
GEORGETOWN     FAIR      72  70  94 W5        30.04R
KINGSTREE      PTSUNNY   64  64 100 CALM      30.03R
ORANGEBURG     CLOUDY    68  67  96 CALM      30.03R FOG
6HR MIN TEMP:  68; 6HR MAX TEMP:  69;

BARNWELL       FAIR      72  70  94 CALM      30.04R
AIKEN          FAIR      70  68  94 CALM      30.07R
MANNING        FAIR      68  64  88 CALM      30.04R
COLUMBIA       PTCLDY    71  65  81 CALM      30.02R
6HR MIN TEMP:  68; 6HR MAX TEMP:  71;

SUMTER         CLEAR     70  67  92 CALM      30.00R
6HR MIN TEMP:  68; 6HR MAX TEMP:  72;

FLORENCE       SUNNY     67  66  97 CALM      30.03R
6HR MIN TEMP:  65; 6HR MAX TEMP:  69;

MYRTLE BEACH   MOSUNNY   72  70  93 W6        30.04  FOG
N MYRTLE BEACH SUNNY     71  69  93 W6        30.02R
6HR MIN TEMP:  69; 6HR MAX TEMP:  72;


$$

GAZ063-065-086>088-099>101-113>116-118-119-134>141-150-201300-
...SOUTHEAST GEORGIA...

CITY           SKY/WX    TMP DP  RH WIND       PRES   REMARKS
SAVANNAH ARPT  MOCLDY    74  69  85 SW6       30.03R
6HR MIN TEMP:  73; 6HR MAX TEMP:  75;

HUNTER AAF     PTCLDY    73  69  87 CALM      30.00R
6HR MIN TEMP:  73; 6HR MAX TEMP:  76;

FORT STEWART   CLOUDY    71  69  92 CALM      30.00R
6HR MIN TEMP:  71; 6HR MAX TEMP:  73;

STATESBORO     MOCLDY    74  67  80 CALM      30.03R
SYLVANIA       MOSUNNY   72  72 100 CALM      30.04R FOG
CLAXTON        FAIR      73  71  93 CALM      30.03R

...CSRA...CENTRAL AND FAR SOUTHEAST GEORGIA...

CITY           SKY/WX    TMP DP  RH WIND       PRES   REMARKS
THOMSON        CLEAR     68  66  94 CALM      30.09R
AUGUSTA-BUSH   PTCLDY    70  69  97 CALM      30.02R FOG
6HR MIN TEMP:  68; 6HR MAX TEMP:  70;

AUGUSTA-DANIEL CLEAR     72  70  93 SE5       30.03R FOG
SWAINSBORO     FAIR      72  72 100 CALM      30.04R
VIDALIA        PTCLDY    73  72  94 CALM      30.04R
EASTMAN        FAIR      71  71 100 CALM      30.06R FOG
HAZLEHURST     FAIR      74  71  90 CALM      30.02R
ALMA           CLEAR     70  69  97 CALM      30.03R FOG
6HR MIN TEMP:  69; 6HR MAX TEMP:  76;

WAYCROSS       CLEAR     73  71  91 CALM      30.03R
JESUP          NOT AVBL
BAXLEY         FAIR      72  72 100 CALM      30.03R
BRUNSWICK      CLEAR     72  70  94 CALM      30.04R
SAINT SIMONS   CLEAR     76  72  87 CALM      30.03R
6HR MIN TEMP:  74; 6HR MAX TEMP:  79;


$$

SCZ027-028-034-036>038-045-046-048>050-GAZ119-141-201300-
...LAKE AND SUPPLEMENTAL COASTAL OBSERVATIONS...

STATION/POSITION TIME  TEMP    WIND        PRES    WAVE   SWELL
                       AIR SEA DIR/SP/G            HT/PER HT/PER/DIR
                 (UTC) (F)     (DEG/KT/KT) (MB)    (FT/S) (FT/S/D)
WINYAH BAY       NOT AVBL
LAKE MURRAY      1120   73        CALM     1015.6
ACE BASIN NERRS  NOT AVBL
FORT PULASKI     1200   76 80  260/  4/  5 1017.3
SAPELO ISLAND    NOT AVBL

$$

ANZ835-935-AMZ111-154-330-350-352-354-370-450-454-472-201300-
...C-MAN AND BUOY OBSERVATIONS...

STATION/POSITION TIME  TEMP    WIND        PRES    WAVE   SWELL
                       AIR SEA DIR/SP/G            HT/PER HT/PER/DIR
                 (UTC) (F)     (DEG/KT/KT) (MB)    (FT/S) (FT/S/D)
BUOY 41004       1210   79 82  280/  8/ 10 1016.5
BUOY 41008       1150   79 80  230/  8/ 10 1016.4R   3/11   3/ 50/11
FOLLY BEACH CMAN 1200   76     280/  1/  2 1017.5R
CAPERS NEARSHORE 1208   76 79  290/  8/ 10 1016.7R
FRIPP NEARSHORE  1208   78     270/  6/  8 1024.2R


STATION/POSITION TIME  TEMP    WIND        PRES    WAVE   SWELL
                       AIR SEA DIR/SP/G            HT/PER HT/PER/DIR
                 (UTC) (F)     (DEG/KT/KT) (MB)    (FT/S) (FT/S/D)
5E ST. MARYS GA  1200      81                N/A     3/13   2/ 60/13
FRYING PAN BUOY  1210   80 82  280/ 10/ 12 1016.1
BUOY 41025       1150   75 74  280/ 14/ 16 1014.1R   5/12   3/ 80/12
CAPE LOOKOUT NC  1200   76     280/ 10/ 11 1015.4R
BUOY 41002       1150   79 80  270/  6/  8 1016.2R   9/11   8/ 20/11
BUOY 41010       1210      84  330/  4/  6 1016.5
ST AUGUSTINE FL  1200   74 82  290/  4/  5 1017.3R


$$




USA.gov is the U.S. government's official web portal to all federal, state and local government web resources and services.